This is the latest recevied weather packets stored in our database for station/object K5NWZ. If no packets are shown the sender has not sent any weather packets the latest 1 day(s).
| Time | Temp. | Humidity | Pressure | Rain* | Wind** | Luminosity | Snow |
|---|---|---|---|---|---|---|---|
| 1778000674 | 2.78° C | 93% | 1024.2 hPa | 6.1 mm | 0 m/s | 250 W/m² | - |
| 1778000370 | 2.78° C | 93% | 1024.1 hPa | 4.32 mm | 0 m/s | 265 W/m² | - |
| 1778000066 | 2.22° C | 94% | 1024.2 hPa | 6.6 mm | 0 m/s | 232 W/m² | - |
| 1777999761 | 2.22° C | 94% | 1024.1 hPa | 6.6 mm | 0 m/s | 204 W/m² | - |
| 1777999458 | 2.22° C | 95% | 1024.1 hPa | 7.11 mm | 0 m/s | 203 W/m² | - |
| 1777999156 | 2.22° C | 94% | 1024.1 hPa | 6.1 mm | 0.45 m/s, 295° | 174 W/m² | - |
| 1777998855 | 2.22° C | 95% | 1024.1 hPa | 3.05 mm | 0.45 m/s, 194° | 191 W/m² | - |
| 1777998554 | 2.22° C | 95% | 1024 hPa | 6.1 mm | 0 m/s | 215 W/m² | - |
| 1777998249 | 1.67° C | 95% | 1024.2 hPa | 4.83 mm | 0 m/s | 201 W/m² | - |
| 1777997946 | 1.67° C | 95% | 1024.1 hPa | 0 mm | 0 m/s | 197 W/m² | - |
| 1777997643 | 1.67° C | 95% | 1024.2 hPa | 0 mm | 0.45 m/s, 312° | 198 W/m² | - |
| 1777997340 | 1.67° C | 95% | 1024.5 hPa | 0 mm | 0.89 m/s, 260° | 181 W/m² | - |
| 1777997038 | 2.22° C | 95% | 1024.6 hPa | 0 mm | 0.45 m/s, 307° | 152 W/m² | - |
| 1777996735 | 1.67° C | 95% | 1024.5 hPa | 0 mm | 0.45 m/s, 296° | 160 W/m² | - |
| 1777996430 | 1.67° C | 95% | 1024.6 hPa | 0 mm | 0.45 m/s, 262° | 137 W/m² | - |
| 1777996127 | 1.67° C | 95% | 1024.6 hPa | 0 mm | 0 m/s | 111 W/m² | - |
| 1777995823 | 1.67° C | 95% | 1024.5 hPa | 0 mm | 0 m/s | 108 W/m² | - |
| 1777995515 | 1.67° C | 95% | 1024.7 hPa | 0 mm | 0.45 m/s, 258° | 90 W/m² | - |
| 1777995212 | 1.67° C | 96% | 1024.7 hPa | 0 mm | 0 m/s | 73 W/m² | - |
| 1777994909 | 1.11° C | 96% | 1024.6 hPa | 0 mm | 0 m/s | 74 W/m² | - |
| 1777994606 | 1.11° C | 96% | 1024.5 hPa | 0 mm | 0 m/s | 66 W/m² | - |
| 1777994305 | 1.11° C | 96% | 1024.7 hPa | 0 mm | 0.45 m/s, 283° | 65 W/m² | - |
| 1777994002 | 1.11° C | 96% | 1024.7 hPa | 0 mm | 0 m/s | 72 W/m² | - |
| 1777993699 | 1.11° C | 96% | 1024.4 hPa | 0 mm | 0 m/s | 61 W/m² | - |
| 1777993396 | 1.11° C | 96% | 1024.6 hPa | 0 mm | 0 m/s | 57 W/m² | - |
* Rain latest hour (hover to see other rain measurements)
** Current wind speed in m/s (hover to see current wind gust speed)